Regional Weather Roundup
Issued by NWS Raleigh/Durham, NC

Current Version | Previous Version | Graphics & Text | Print | Product List | Glossary On
Versions: 1 2 3 4 5 6 7 8 9 10 11 12 13 14 15 16 17 18 19 20 21 22 23 24 25 26 27 28 29 30 31 32 33 34 35 36 37 38 39 40 41 42 43 44 45 46 47 48 49 50
000
ASUS42 KRAH 120510
RWRRAH
NORTH CAROLINA WEATHER ROUNDUP
NATIONAL WEATHER SERVICE RALEIGH NC
1200 AM EST FRI FEB 12 2016

NOTE: "FAIR" INDICATES FEW OR NO CLOUDS BELOW 12,000 FEET WITH NO
SIGNIFICANT WEATHER AND/OR OBSTRUCTIONS TO VISIBILITY.

NCZ001-053-055-056-065-067-120600-
WESTERN NORTH CAROLINA

CITY           SKY/WX    TMP DP  RH WIND       PRES   REMARKS
ASHEVILLE      CLEAR     29  18  63 N5        30.18S WCI  24
JEFFERSON      PTCLDY    24  13  61 SW5       30.11F WCI  19
MORGANTON      CLEAR     24  19  78 CALM      30.25F
HICKORY        CLEAR     28  18  66 E3        30.21R
RUTHERFORDTON  CLEAR     28  18  68 CALM      30.23S
MOUNT AIRY     MOCLDY    31   8  37 SE3       30.24R
BOONE          CLOUDY    22  15  75 W3        30.13F
$$

NCZ021-022-025-041-071-084-088-120600-
CENTRAL NORTH CAROLINA

CITY           SKY/WX    TMP DP  RH WIND       PRES   REMARKS
CHARLOTTE      PTCLDY    35  11  36 NE9       30.24R WCI  28
GREENSBORO     PTCLDY    27   5  39 NE6       30.25R WCI  20
WINSTON-SALEM  CLEAR     27   7  42 NE5       30.26R WCI  22
RALEIGH-DURHAM PTCLDY    27   6  41 NE7       30.30S WCI  19
FORT BRAGG     CLEAR     28  21  73 NE3       30.27R
FAYETTEVILLE   CLEAR     28  20  71 N7        30.27S WCI  21
BURLINGTON     CLEAR     26   6  42 NE6       30.28R WCI  19
LAURINBURG     CLEAR     27  21  78 NE5       30.26F WCI  22
$$

NCZ011-015-027-028-043-044-047-080-103-120600-
NORTHEASTERN NORTH CAROLINA

CITY           SKY/WX    TMP DP  RH WIND       PRES   REMARKS
ROCKY MT-WILSO CLEAR     26  11  52 CALM      30.31F
GREENVILLE     CLEAR     30  12  47 CALM      30.33R
WASHINGTON     PTCLDY    26  15  64 CALM      30.32R
ELIZABETH CITY CLEAR     29  12  49 N14       30.31S WCI  18
MANTEO         CLEAR     32   5  32 N7        30.31S WCI  26
CAPE HATTERAS  CLEAR     34  13  41 VRB3      30.31S
$$

NCZ078-087-090-091-093-098-101-120600-
SOUTHEASTERN NORTH CAROLINA

CITY           SKY/WX    TMP DP  RH WIND       PRES   REMARKS
LUMBERTON      CLEAR     30  25  81 S3        30.26F
GOLDSBORO      CLEAR     32  12  43 NE7       30.28F WCI  26
KINSTON        CLEAR     27  20  77 CALM      30.32S
KENANSVILLE    CLEAR     25  21  85 CALM      30.31S
NEW BERN       CLEAR     25  19  78 CALM      30.31F
CHERRY POINT   CLEAR     29  23  78 CALM      30.31F
BEAUFORT       CLEAR     28  19  69 CALM      30.31F
JACKSONVILLE   CLEAR     28  24  85 CALM      30.30S
WILMINGTON     CLEAR     30  27  88 CALM      30.28F
$$




USA.gov is the U.S. government's official web portal to all federal, state and local government web resources and services.